Location: El Mouella
(16.4949°N, 9.1594°W)
Time: 01:10:57
(UTC+00:00)

H-2A R/B - Pass Details

Date: 26 September 2020
Orbit: 734 x 836 km, 98.2° (Epoch: 20 October)

Event Time Altitude Azimuth Distance (km) Brightness Sun altitude
Exits shadow 20:00:49 29° 161° (SSE) 1,341 3.0 -22.8°
Maximum altitude 20:03:24 80° 77° (ENE) 760 1.8 -23.4°
Drops below altitude 10° 20:08:24 10° 351° (N) 2,284 4.6 -24.6°
Sets 20:10:44 0° 350° (N) 3,225 5.4 -25.1°
